TimeEDT,TemperatureF,Dew PointF,Humidity,Sea Level PressureIn,VisibilityMPH,Wind Direction,Wind SpeedMPH,Gust SpeedMPH,PrecipitationIn,Events,Conditions,WindDirDegrees,DateUTC
12:53 AM,69.1,57.0,65,30.16,10.0,East,10.4,-,N/A,,Clear,100,2012-03-28 04:53:00
1:53 AM,68.0,57.9,70,30.15,10.0,East,6.9,-,N/A,,Clear,90,2012-03-28 05:53:00
2:53 AM,64.9,57.9,78,30.14,10.0,East,6.9,-,N/A,,Clear,90,2012-03-28 06:53:00
3:53 AM,64.0,57.9,80,30.14,10.0,East,4.6,-,N/A,,Clear,80,2012-03-28 07:53:00
4:53 AM,64.0,59.0,84,30.13,10.0,East,4.6,-,N/A,,Clear,90,2012-03-28 08:53:00
5:53 AM,64.0,59.0,84,30.12,10.0,East,8.1,-,N/A,,Clear,100,2012-03-28 09:53:00
6:53 AM,64.0,59.0,84,30.14,10.0,East,5.8,-,N/A,,Clear,90,2012-03-28 10:53:00
7:53 AM,64.0,59.0,84,30.16,10.0,East,3.5,-,N/A,,Clear,80,2012-03-28 11:53:00
8:53 AM,68.0,61.0,78,30.17,10.0,East,5.8,-,N/A,,Clear,80,2012-03-28 12:53:00
9:53 AM,75.0,61.0,62,30.18,10.0,ESE,11.5,-,N/A,,Clear,110,2012-03-28 13:53:00
10:53 AM,78.1,59.0,52,30.17,10.0,East,13.8,-,N/A,,Clear,100,2012-03-28 14:53:00
11:53 AM,80.1,55.9,43,30.17,10.0,East,11.5,18.4,N/A,,Clear,100,2012-03-28 15:53:00
12:53 PM,82.9,54.0,37,30.15,10.0,SE,8.1,18.4,N/A,,Partly Cloudy,140,2012-03-28 16:53:00
1:53 PM,84.0,53.1,34,30.13,10.0,East,6.9,-,N/A,,Partly Cloudy,80,2012-03-28 17:53:00
2:53 PM,81.0,61.0,50,30.10,10.0,West,11.5,-,N/A,,Scattered Clouds,260,2012-03-28 18:53:00
3:53 PM,81.0,61.0,50,30.07,10.0,West,10.4,-,N/A,,Clear,260,2012-03-28 19:53:00
4:53 PM,80.1,62.1,54,30.06,10.0,West,11.5,-,N/A,,Clear,260,2012-03-28 20:53:00
5:53 PM,80.1,63.0,56,30.05,10.0,WNW,11.5,-,N/A,,Clear,300,2012-03-28 21:53:00
6:53 PM,78.1,63.0,60,30.04,10.0,West,9.2,-,N/A,,Clear,280,2012-03-28 22:53:00
7:53 PM,75.0,62.1,64,30.04,10.0,WNW,9.2,-,N/A,,Clear,300,2012-03-28 23:53:00
8:53 PM,73.0,63.0,71,30.07,10.0,West,5.8,-,N/A,,Partly Cloudy,280,2012-03-29 00:53:00
9:53 PM,72.0,64.0,76,30.08,10.0,NW,4.6,-,N/A,,Clear,310,2012-03-29 01:53:00
10:53 PM,73.0,64.0,73,30.08,10.0,Calm,Calm,-,N/A,,Scattered Clouds,0,2012-03-29 02:53:00
11:53 PM,71.1,63.0,75,30.07,10.0,Calm,Calm,-,N/A,,Clear,0,2012-03-29 03:53:00